RH
7 7 7 7 8 7 7 6 7 10 10 9 6 5 5 5 6 9 12 13 16 18 21 18 26 43 40 36 36 35 33 28 25 26 29 28 27 21 21 29 38 44 44 41 37 32 29 28 32 33 34 38 41 41 42 40 37 36 35 33 30 28 27 25 25 23 22 20 18 15 13 11 11 9 9 12 13 16 19 20 20 21 20 20 19 18 18 18 21 23 24 24 24 24 24 24 25
7 7 8 8 8 7 7 7 7 9 11 9 5 5 5 5 5 8 10 13 18 21 23 20 35 48 41 41 39 39 37 31 30 29 29 31 31 23 24 42 51 52 44 38 36 34 31 30 31 31 34 38 42 43 42 41 38 37 36 34 31 29 27 25 24 23 23 21 19 16 14 13 12 10 9 12 13 16 19 20 20 21 21 20 20 19 19 19 21 24 25 25 25 24 24 25 26
7 8 8 8 8 7 7 8 8 8 9 8 5 5 5 5 6 8 9 11 15 18 20 19 35 51 50 51 46 45 42 35 36 36 37 36 34 30 35 49 51 49 43 39 38 35 33 31 29 30 36 39 43 45 43 42 39 38 37 35 32 29 27 25 24 24 23 22 19 16 15 14 13 11 10 11 13 16 19 19 20 21 22 21 21 20 19 19 20 23 25 26 27 25 25 25 26
8 8 8 8 7 7 8 8 8 8 7 6 5 7 7 8 8 10 11 12 14 14 18 20 35 58 61 54 47 43 38 38 42 39 38 39 41 40 43 47 45 48 45 41 39 35 35 33 32 34 38 42 45 47 44 42 40 39 37 35 33 30 28 26 25 24 24 22 18 16 15 15 14 12 10 12 13 16 19 19 20 21 22 22 21 21 20 19 20 23 25 27 27 26 26 26 25
8 8 8 8 7 7 8 8 8 7 6 5 6 6 7 9 8 10 12 12 15 14 19 25 35 59 62 50 46 40 33 35 40 35 32 34 40 42 42 45 45 47 46 42 41 39 38 37 38 40 43 45 47 49 45 43 42 41 38 36 33 31 29 28 27 25 25 23 19 16 14 15 14 15 11 11 15 17 20 20 21 22 22 23 23 22 20 20 20 22 25 27 27 27 27 28 26
8 8 9 8 8 9 10 9 7 6 5 5 5 5 6 7 8 9 12 12 15 15 22 29 34 52 57 47 46 43 34 32 34 31 29 28 32 35 32 38 41 43 43 40 42 42 43 44 44 46 48 49 50 50 47 45 43 42 40 37 35 32 31 29 28 27 27 24 20 14 14 14 14 24 19 10 16 19 20 21 21 22 22 23 23 23 21 20 20 21 25 27 27 27 27 28 28
8 8 8 8 8 9 10 9 7 6 5 6 5 5 7 8 11 12 13 13 15 17 23 30 32 44 52 48 45 45 40 35 32 29 31 29 31 34 28 34 38 38 40 39 41 43 46 49 49 51 52 52 52 52 49 47 45 44 41 40 38 35 33 32 32 31 28 25 21 15 13 14 13 28 26 11 15 19 19 20 21 22 22 23 23 24 23 21 21 21 24 27 27 27 27 27 27
8 7 7 7 8 9 9 7 7 6 6 6 6 7 9 12 16 15 14 14 15 18 21 27 33 42 50 53 49 46 42 35 32 28 34 34 32 37 32 35 39 39 42 41 42 45 48 52 54 56 56 55 55 53 50 49 48 46 45 44 43 41 39 39 38 35 31 27 23 18 14 14 13 20 21 13 15 18 19 19 20 21 22 23 23 24 24 22 21 21 22 26 27 27 27 26 27
8 7 7 8 8 8 8 7 7 6 6 6 7 10 12 17 20 16 15 14 14 17 19 24 34 43 50 56 53 46 41 33 30 26 31 35 34 38 37 37 41 45 46 43 44 48 52 56 59 62 61 59 56 54 52 52 51 50 50 50 50 48 46 44 43 38 33 29 25 22 16 14 13 14 14 13 15 18 19 19 20 21 21 23 23 23 24 23 22 22 21 24 27 28 27 27 26
8 7 7 8 8 8 7 7 6 6 7 6 9 14 16 24 25 16 14 15 14 15 21 28 35 43 49 57 56 49 45 33 27 25 27 33 36 40 41 40 40 46 48 44 47 52 57 61 65 67 64 61 57 56 56 56 55 55 56 55 55 52 50 47 45 41 36 31 27 24 21 17 15 13 13 13 14 18 19 20 21 21 22 23 23 23 23 24 23 23 22 22 26 28 28 27 27
8 8 8 9 8 8 7 7 6 6 6 6 12 17 21 28 26 17 15 15 13 13 23 33 37 42 46 54 56 50 45 30 22 25 27 31 37 41 43 44 43 46 49 50 52 54 59 65 69 69 65 61 59 60 60 61 60 60 59 57 56 54 53 51 47 45 39 34 31 27 24 22 17 14 13 12 13 16 18 20 22 22 21 22 23 23 23 24 24 24 24 23 25 27 28 28 27
8 7 8 9 8 7 7 7 6 6 6 9 15 19 20 25 25 19 15 13 13 13 19 31 36 39 44 50 51 45 38 29 22 22 26 33 38 43 44 46 48 48 51 56 57 58 65 70 71 69 65 63 63 64 64 64 62 59 58 56 55 54 55 53 50 46 41 36 33 30 28 25 21 18 15 13 12 13 15 17 20 21 21 22 22 22 23 23 24 25 25 25 25 27 28 28 28
8 7 7 8 8 7 7 7 7 6 7 13 18 19 19 22 27 21 13 12 12 12 15 25 33 35 40 44 43 39 34 28 24 22 25 32 36 38 40 44 50 51 54 60 64 69 74 74 72 68 66 66 65 65 65 62 59 56 56 56 56 56 56 54 50 45 41 39 36 34 31 28 25 21 18 16 14 12 11 12 15 19 21 22 22 22 22 23 24 24 25 26 26 26 27 28 28
7 7 7 8 8 8 7 7 7 7 10 16 18 18 18 20 30 26 14 11 12 13 15 21 30 33 34 36 37 35 33 28 23 24 25 26 29 29 32 42 51 54 58 67 76 80 78 75 72 69 66 63 59 58 57 56 56 56 57 60 59 59 58 54 51 47 44 42 41 40 36 33 29 25 23 20 17 14 12 10 11 14 18 22 22 22 22 22 23 24 24 25 25 26 27 27 28
8 7 7 7 7 7 7 8 6 8 13 18 18 18 18 18 30 34 21 14 13 13 15 20 26 30 31 33 37 34 30 29 24 25 25 23 25 26 33 46 55 57 63 72 80 81 78 74 70 64 59 54 51 51 53 55 57 59 61 63 62 63 62 58 54 51 48 47 46 44 41 37 34 31 28 26 24 21 16 13 12 12 15 20 22 22 22 23 23 23 24 24 25 25 26 27 28
8 7 7 7 7 8 7 8 7 8 14 17 18 17 19 17 25 37 32 22 19 15 13 20 22 27 35 34 35 33 30 33 31 28 27 25 25 28 37 49 57 61 64 70 76 78 73 67 61 55 53 53 52 54 58 61 63 64 66 66 66 67 65 62 59 56 53 51 52 53 51 49 49 46 39 37 35 33 31 28 24 19 17 19 22 23 23 23 23 23 23 24 23 24 27 27 26
8 8 8 7 7 8 7 8 8 8 11 14 16 17 18 17 21 34 37 29 27 23 19 22 24 28 37 34 32 35 32 32 33 29 28 27 27 29 35 43 53 61 63 66 68 66 59 55 55 52 52 55 57 60 65 65 66 69 70 71 72 73 72 70 66 64 62 58 59 64 65 62 62 58 52 51 49 47 49 48 42 34 26 22 22 24 24 25 24 24 23 24 24 27 33 31 26
7 8 8 8 7 7 7 8 8 8 10 11 14 15 17 18 18 26 37 40 34 28 27 30 31 32 34 34 36 36 31 29 30 31 32 33 31 31 33 39 49 57 58 57 55 52 49 50 53 56 55 59 62 65 69 68 68 73 77 77 78 79 79 79 76 74 72 68 68 70 72 70 66 60 59 61 62 62 62 58 53 48 41 33 28 27 26 25 24 26 25 28 34 36 36 33 29
7 7 7 7 7 7 8 8 8 9 9 11 12 13 16 17 17 21 33 42 40 35 34 33 33 33 33 38 38 33 31 31 31 34 38 38 36 37 40 43 48 51 50 46 46 48 50 50 53 59 59 63 68 68 70 70 71 77 82 82 80 81 81 80 79 78 75 73 72 73 74 72 68 63 63 68 72 73 68 59 53 53 53 49 44 39 34 31 31 34 37 40 42 39 33 33 33
7 7 7 7 7 8 8 8 9 9 9 10 10 12 16 17 16 20 28 36 41 43 43 43 41 38 36 40 38 32 34 35 36 40 40 39 41 47 50 49 49 47 46 47 48 48 48 52 57 60 62 68 70 68 68 69 73 79 80 81 80 80 81 81 81 80 77 74 73 75 76 72 69 67 68 72 73 73 69 59 54 56 57 54 51 48 45 44 44 45 46 46 42 37 35 35 35
8 7 7 7 8 8 8 8 8 10 9 9 10 12 15 17 16 18 25 33 42 47 48 52 52 48 46 46 44 40 37 35 35 36 36 35 35 44 50 51 50 48 50 54 52 48 48 56 61 59 61 67 67 64 64 65 72 77 77 79 80 79 81 85 85 83 80 77 75 74 75 72 69 68 71 71 67 67 65 56 53 56 57 55 52 50 50 51 52 52 50 46 42 40 41 41 39
8 7 7 7 8 8 8 8 9 10 10 10 11 12 14 16 16 16 18 24 35 42 45 53 56 54 54 54 49 43 37 35 33 32 34 34 33 40 47 47 47 48 53 55 51 52 55 58 61 61 61 64 64 62 62 66 71 75 79 81 80 80 83 87 88 87 84 81 77 74 74 71 66 67 69 66 60 59 58 52 52 54 54 55 55 54 53 53 53 52 50 46 45 46 48 49 48
8 8 8 8 8 8 9 9 10 11 9 10 11 12 14 15 16 16 15 16 23 31 33 43 53 55 55 52 44 39 37 35 33 33 34 37 39 43 46 44 43 47 52 53 53 57 60 58 60 65 66 65 63 61 62 68 73 79 83 81 80 82 86 90 90 90 88 83 78 76 74 69 65 64 61 57 53 52 53 53 56 57 56 56 57 57 56 55 52 50 49 49 49 51 53 54 56
8 8 8 9 9 9 10 10 10 10 9 10 11 11 13 15 15 15 15 14 16 21 19 24 39 49 47 41 35 33 32 30 29 30 32 37 41 43 47 48 49 55 55 51 56 61 60 61 62 67 69 67 64 62 64 70 78 83 82 79 79 82 87 90 91 91 90 85 80 77 74 68 62 57 52 49 48 50 53 56 61 65 65 64 63 62 61 58 56 54 54 54 56 57 57 59 61
8 7 8 9 10 11 12 11 9 9 9 10 10 10 13 15 15 14 14 14 13 15 14 16 25 35 37 34 31 27 24 24 22 22 26 32 36 41 51 56 58 63 60 51 54 61 64 66 67 68 69 67 66 66 69 74 80 82 79 78 78 81 89 90 90 92 90 85 81 78 76 68 58 51 48 48 50 53 57 62 66 68 69 70 70 69 66 63 61 62 63 63 64 63 62 63 64
8 8 8 9 10 12 13 10 8 9 9 10 9 9 13 15 14 15 14 15 14 13 14 15 16 22 29 29 24 20 19 18 18 23 30 36 39 43 55 65 64 67 69 59 55 62 67 68 66 68 68 66 69 71 75 78 78 80 77 76 78 83 91 90 88 91 89 85 81 80 78 70 60 55 55 58 60 62 64 67 70 71 72 73 73 72 70 66 64 64 65 64 65 66 67 67 65
9 9 9 9 10 10 11 9 9 10 9 11 10 10 14 16 14 14 15 15 14 13 14 14 13 16 20 19 17 17 16 17 24 31 35 42 48 53 66 75 73 76 82 72 62 65 64 61 61 67 70 70 75 77 79 80 78 79 76 76 82 87 91 89 86 89 89 84 81 81 81 76 69 67 69 71 71 70 71 72 74 76 76 76 75 72 69 65 63 60 57 56 60 65 69 69 68
8 9 9 10 10 11 10 8 9 10 9 11 11 12 14 15 14 13 15 14 13 14 14 14 14 14 16 16 18 19 17 22 29 30 43 62 69 76 84 87 89 84 85 86 78 74 71 67 67 70 74 76 78 79 80 83 81 80 82 85 86 89 91 87 85 88 88 83 79 81 84 80 75 75 76 75 74 73 73 75 77 79 79 78 75 70 66 62 59 55 52 51 56 64 69 70 71
9 9 9 11 11 13 14 11 12 10 9 11 14 16 15 14 13 13 14 13 13 13 13 14 13 14 16 16 19 20 19 24 32 43 65 77 72 78 82 86 96 84 80 97 95 90 92 87 78 74 77 81 82 84 88 89 86 86 91 92 88 88 89 84 85 88 85 79 77 82 85 82 79 78 77 76 75 74 75 76 76 77 77 76 74 69 64 59 55 49 48 51 55 65 73 74 75
13 13 12 14 14 16 18 16 15 12 9 12 15 18 17 15 13 14 14 13 14 13 13 14 13 14 13 13 15 15 20 33 53 74 87 83 74 77 77 79 90 83 83 97 97 96 96 87 82 80 80 86 89 89 91 89 88 90 92 92 89 87 83 81 86 87 81 75 77 84 86 83 80 78 78 77 72 68 71 75 77 76 74 73 70 65 59 53 50 48 50 53 55 65 75 77 80
21 21 19 21 21 21 20 18 17 16 14 15 16 18 17 15 14 14 14 14 15 14 14 14 14 14 12 12 10 12 31 46 61 78 82 83 83 81 82 86 91 90 90 92 95 97 88 77 79 81 80 84 90 89 88 89 88 89 89 90 87 81 78 82 88 84 77 75 80 86 85 81 78 77 78 77 70 61 59 64 69 70 67 65 61 58 55 52 51 51 55 56 56 66 75 77 80
27 25 25 25 25 24 22 20 19 17 18 17 17 18 16 14 14 14 14 15 15 14 15 14 14 14 12 13 8 21 44 46 56 68 59 58 68 69 67 77 91 97 95 92 96 93 81 75 73 72 75 80 87 88 88 89 86 86 88 87 83 76 77 84 88 82 76 77 81 83 81 78 78 78 78 75 69 58 49 49 53 55 55 54 55 57 58 57 55 55 58 60 60 66 72 73 77
30 27 26 26 24 25 23 21 20 18 19 19 19 18 16 14 14 14 14 15 15 14 15 14 15 13 14 12 8 27 37 31 47 54 41 48 67 70 56 50 65 82 91 93 93 87 75 73 72 69 74 78 82 83 83 86 86 86 86 84 78 74 77 84 85 80 76 78 79 79 79 78 76 72 70 66 60 51 45 48 52 54 54 54 57 61 60 59 58 58 60 63 64 64 66 69 74
31 28 26 26 24 24 23 20 20 19 19 20 21 20 17 14 14 14 14 14 15 15 15 14 15 13 14 11 10 25 25 16 28 25 26 50 63 70 63 43 42 61 84 87 80 80 70 67 72 72 75 75 74 75 77 82 85 82 79 78 75 73 76 80 79 75 74 76 75 73 72 69 65 59 58 56 50 45 43 52 63 62 60 61 61 61 60 60 60 60 62 65 64 63 64 69 74
28 28 26 26 24 23 22 21 19 18 18 19 20 20 18 15 14 16 14 14 14 14 15 14 15 14 13 12 11 19 16 9 16 10 19 44 50 61 64 44 36 47 70 77 69 71 66 60 64 65 67 68 66 69 76 82 82 76 72 71 71 72 73 70 69 67 67 66 62 60 57 53 49 44 44 42 41 43 44 52 62 59 57 60 59 58 60 64 65 63 64 68 66 65 68 73 76
27 26 24 24 23 22 21 22 20 18 18 17 17 18 19 16 14 16 16 14 14 13 15 14 14 14 12 13 12 14 12 8 14 10 15 35 45 59 60 45 40 38 47 60 60 63 63 57 54 53 57 65 66 64 71 81 78 71 69 65 64 65 61 57 57 56 56 53 48 45 40 36 33 29 28 28 34 46 48 47 49 47 48 52 53 56 60 66 67 64 66 70 69 69 73 75 77
31 28 25 22 20 22 23 23 21 19 19 16 16 17 17 17 14 16 18 17 15 12 14 15 14 15 12 13 13 13 13 10 14 13 16 32 43 56 59 46 42 38 35 41 45 48 53 53 54 56 56 60 65 64 66 73 71 69 65 57 55 53 48 47 50 49 46 41 34 30 29 28 27 25 23 22 26 32 32 29 29 33 40 47 54 58 59 63 65 63 67 71 71 73 76 76 77
34 31 27 22 20 23 25 24 21 20 20 16 15 16 16 16 14 15 19 18 17 13 13 14 14 15 14 13 13 13 13 11 13 13 16 29 39 51 57 46 42 43 37 35 37 39 44 49 55 60 58 58 64 68 69 69 69 71 63 53 51 47 46 48 46 40 35 30 28 29 32 33 33 32 30 27 25 23 22 23 26 33 43 53 60 58 55 59 61 62 67 71 73 75 77 78 79
34 31 30 26 21 23 27 25 22 20 21 17 15 17 15 14 14 15 17 18 18 16 13 13 14 14 14 14 14 13 12 12 13 12 15 26 35 46 53 47 43 44 42 40 39 38 42 50 57 58 58 63 69 70 71 70 72 71 63 56 52 47 45 41 32 29 28 29 32 34 37 37 35 34 33 31 30 28 28 30 36 44 51 58 60 56 52 53 57 61 66 71 74 75 78 81 80
33 32 31 29 25 27 29 26 21 19 18 15 14 17 14 12 14 14 15 17 17 17 15 14 14 14 14 14 13 13 13 12 12 11 14 25 31 40 50 48 45 46 46 46 43 41 43 51 59 58 54 60 69 73 73 73 73 69 58 49 46 43 37 28 24 27 29 31 34 34 35 36 35 34 33 32 30 29 28 28 32 38 45 50 51 51 50 50 54 58 63 69 73 76 79 81 80
33 33 31 30 27 26 26 22 19 16 15 16 19 23 19 13 13 14 15 16 16 16 16 15 15 14 13 14 13 13 13 12 13 10 14 22 24 34 49 50 48 49 48 48 48 45 45 51 59 61 59 62 70 75 74 73 72 65 50 39 38 34 26 23 28 30 31 32 33 33 34 35 35 34 34 34 33 33 31 29 28 27 29 33 37 43 49 54 56 59 63 68 71 74 76 78 79
32 30 27 25 23 21 20 20 18 18 20 24 28 28 23 18 17 19 19 18 17 17 17 16 16 15 14 14 12 12 13 11 12 11 12 19 21 32 50 51 47 50 51 49 49 47 46 50 58 64 66 68 72 75 73 72 71 63 48 38 35 27 23 28 31 30 31 32 33 34 36 35 35 35 35 36 37 38 39 38 36 31 26 23 23 29 37 46 52 55 59 62 65 68 72 74 76
30 24 22 22 21 21 22 21 21 22 25 29 30 28 27 24 21 21 20 18 17 18 17 16 15 14 14 14 11 11 13 12 12 11 12 17 22 33 50 52 43 46 53 52 49 50 49 51 60 68 68 66 71 74 72 72 72 65 50 39 32 27 29 32 29 28 31 33 35 36 36 34 34 34 35 38 41 43 44 43 43 41 37 30 24 20 20 26 35 43 48 52 56 61 67 71 73
27 20 22 24 23 23 22 23 23 24 26 27 27 29 31 29 23 20 19 18 17 17 16 15 14 14 14 15 13 11 12 12 11 11 11 14 21 35 50 52 41 42 54 55 51 51 51 54 63 69 68 67 70 73 71 73 72 63 48 35 30 31 34 32 29 30 32 35 37 36 35 35 34 34 35 39 43 46 47 46 45 44 42 40 35 27 20 17 19 26 36 45 51 56 62 66 69
24 22 24 25 25 25 23 24 24 24 28 28 25 28 30 29 25 20 18 18 18 17 15 14 14 14 15 14 12 12 12 11 11 11 11 13 21 36 50 52 45 44 50 52 52 54 53 55 63 70 71 69 71 72 72 74 70 57 43 33 30 32 33 31 31 34 37 39 40 39 40 40 38 37 37 38 41 42 43 43 43 43 43 43 41 36 28 21 15 16 23 34 46 55 63 66 69
24 24 25 25 26 26 24 24 25 28 33 29 25 28 28 26 24 21 20 19 20 19 15 13 14 13 13 12 10 11 11 10 11 10 11 14 21 36 51 53 49 46 43 44 52 57 55 56 63 72 73 71 72 72 74 76 65 48 40 35 30 31 31 30 33 38 42 45 45 46 46 45 45 43 42 41 40 40 39 39 38 39 42 43 42 39 34 27 20 16 19 26 38 52 62 68 71
26 26 26 27 27 27 26 26 29 32 33 28 26 28 28 27 24 21 20 19 21 22 17 13 14 14 11 10 10 10 10 11 11 11 13 15 22 39 53 54 51 46 39 41 52 59 58 58 64 72 75 74 73 72 74 75 61 45 42 37 31 33 32 31 36 43 47 49 50 50 50 50 50 49 47 46 45 42 39 38 37 37 40 41 42 40 34 29 25 20 18 22 40 57 63 66 69
29 28 29 29 28 31 31 31 33 32 30 28 26 27 29 29 25 21 20 20 21 23 21 15 13 14 13 12 11 11 11 11 10 11 13 15 25 45 57 54 51 49 42 44 54 61 60 61 66 72 75 74 72 73 74 71 59 48 43 38 33 34 34 35 43 48 51 52 52 53 52 53 53 51 50 48 42 36 35 36 36 38 41 42 42 37 29 25 23 21 15 18 43 62 64 64 67
29 29 30 29 29 33 33 31 33 31 28 29 27 27 29 27 23 20 20 24 25 25 26 22 17 15 14 14 13 13 13 12 20 27 26 26 36 55 64 60 55 51 47 50 56 62 62 62 67 71 73 74 71 71 73 68 59 51 45 39 36 36 38 41 47 50 51 52 52 53 52 53 51 49 49 45 35 32 37 41 41 43 44 41 38 31 22 17 16 18 15 15 30 44 50 59 65
25 26 28 28 28 32 33 32 32 31 29 28 27 28 29 25 23 21 20 24 30 30 28 27 25 21 21 20 17 17 15 18 38 55 57 60 68 75 73 64 58 54 52 54 58 64 64 62 66 69 73 77 73 72 74 65 57 53 46 40 38 38 41 46 50 50 51 51 51 51 51 50 47 46 47 42 36 39 44 46 46 47 45 38 33 27 20 14 11 14 16 18 29 41 51 61 69
23 24 26 27 27 29 30 29 28 28 28 30 32 29 27 27 26 25 25 23 26 31 31 29 27 27 29 28 24 25 28 30 41 53 63 72 81 89 85 70 60 57 55 56 61 67 65 62 64 65 70 76 73 74 75 65 59 56 49 42 39 39 44 48 49 50 51 51 51 50 48 45 42 44 45 41 42 48 50 50 50 49 44 39 34 28 22 15 10 11 16 24 39 53 63 70 75
25 26 27 27 27 26 27 26 26 28 29 34 38 31 26 28 28 29 35 33 26 26 29 30 28 27 29 30 30 33 35 33 29 37 56 69 70 80 89 82 69 61 56 56 63 69 65 64 64 64 71 76 75 76 74 66 64 59 49 44 40 40 45 47 46 51 55 55 55 52 48 45 42 44 44 40 43 50 54 55 54 51 47 42 36 28 21 14 9 11 15 25 42 57 67 71 70
27 28 28 26 26 26 27 30 32 32 30 31 37 37 34 33 31 32 38 43 37 28 27 31 30 28 26 28 31 32 34 36 33 41 55 63 63 66 78 83 73 62 59 59 65 69 67 66 65 67 76 81 82 82 75 68 66 56 46 44 42 40 45 46 46 52 57 58 59 57 53 49 46 46 45 41 41 48 55 58 57 55 52 47 40 29 18 11 7 9 12 19 35 49 55 54 51
27 27 26 24 27 28 26 29 34 34 29 31 44 54 49 41 39 38 38 41 42 35 32 32 31 30 28 29 28 29 40 48 56 68 63 56 63 68 72 78 70 63 65 66 67 68 67 68 68 70 78 84 88 88 79 69 65 59 51 49 45 43 45 47 47 51 56 58 59 59 57 55 53 51 49 44 41 42 51 58 60 58 55 52 45 31 17 8 5 7 10 14 24 33 38 41 42
26 27 26 24 28 28 26 28 32 32 31 36 53 62 53 40 38 40 40 41 42 38 36 33 32 33 32 35 34 34 43 49 63 86 79 63 67 70 70 74 73 71 73 69 67 67 67 69 69 68 72 78 85 91 85 72 67 69 66 55 48 45 46 48 47 51 57 58 59 60 60 59 58 57 54 51 45 41 44 55 59 55 53 49 37 22 12 7 5 6 8 13 19 26 32 36 38
27 27 27 26 27 26 27 28 27 29 34 39 47 53 45 34 33 36 38 43 44 40 38 36 36 38 39 41 43 45 51 55 66 82 84 78 75 68 65 68 71 77 78 72 65 64 68 71 69 69 73 78 84 89 88 77 73 77 69 53 47 46 47 48 48 51 57 58 59 61 62 61 62 62 60 56 52 45 41 47 54 51 46 38 23 11 7 5 5 6 8 13 18 23 27 30 36
27 28 28 27 28 28 29 30 27 29 36 40 40 39 36 32 31 35 39 44 46 43 43 44 45 49 51 54 62 70 72 71 73 77 80 85 81 69 62 62 67 76 79 76 67 62 69 74 72 76 81 86 89 89 88 82 80 81 68 51 46 47 49 50 50 53 58 60 61 62 63 65 65 66 65 61 57 52 43 41 48 46 36 25 13 7 6 6 6 6 7 11 16 21 24 29 42
29 28 27 26 28 30 30 30 33 33 34 41 40 33 33 33 31 35 39 43 48 51 54 58 60 66 71 74 80 87 87 82 78 74 75 80 79 72 69 69 73 77 79 78 70 65 72 75 75 80 83 86 90 90 90 86 84 84 74 59 51 50 51 52 52 56 59 61 63 64 66 69 69 70 70 66 61 57 47 39 44 43 28 16 9 6 7 7 6 6 7 10 14 19 23 30 46
Wind_Speed
12 11 11 10 10 10 9 8 7 9 9 9 10 12 9 6 3 2 3 2 2 3 4 6 5 3 3 2 2 3 6 8 7 7 5 4 5 7 12 12 10 12 14 14 14 14 16 15 14 14 13 13 12 12 12 11 10 9 9 8 8 7 6 5 4 3 3 2 0 0 0 1 1 3 5 7 8 10 11 10 9 8 8 8 8 8 8 9 11 12 13 14 15 15 16 17 18
11 10 10 9 10 9 9 8 7 7 7 9 11 11 7 6 5 2 2 2 2 4 6 7 3 1 2 3 2 1 2 4 5 4 2 2 3 6 11 10 9 11 13 13 12 13 15 15 14 14 13 13 13 12 12 11 10 9 9 8 8 7 6 5 4 4 3 2 1 1 2 2 3 3 6 7 8 10 12 11 10 9 9 9 8 7 8 8 10 11 12 14 14 15 15 16 17
10 10 9 9 10 9 9 8 8 5 5 10 11 7 6 5 3 2 3 5 4 6 7 7 4 3 5 5 4 3 4 6 6 4 3 1 2 6 10 10 11 11 12 12 12 13 15 15 14 14 14 14 14 13 12 11 10 9 8 7 7 7 7 6 5 4 3 3 3 3 3 4 4 4 7 9 9 11 12 11 11 10 10 9 8 8 8 8 10 11 12 13 13 14 14 15 15
10 9 9 9 10 9 9 9 9 8 9 11 5 3 3 2 1 2 2 4 5 8 9 7 5 7 8 6 4 3 4 5 7 6 4 3 4 6 7 9 10 11 13 13 12 14 14 14 15 15 15 14 14 13 12 11 9 8 7 7 7 7 6 5 4 4 3 4 5 6 5 5 5 5 8 9 10 11 12 11 11 11 10 10 9 8 8 8 9 10 11 12 12 12 12 13 13
9 9 9 9 9 10 9 9 9 10 10 8 4 2 4 4 6 5 3 5 6 9 7 5 6 9 9 7 3 3 4 6 8 6 5 5 5 6 5 7 8 10 12 12 13 14 14 15 15 15 15 14 14 13 11 10 9 8 8 7 7 6 5 4 4 4 4 5 6 7 7 7 7 7 8 10 11 12 13 12 11 11 10 10 9 8 7 8 8 9 11 11 11 11 11 11 12
9 9 9 9 10 10 10 9 10 11 10 8 8 6 6 9 11 7 6 6 6 7 4 2 8 10 8 7 5 6 6 7 9 6 6 6 5 7 6 7 8 10 12 12 14 15 15 15 15 14 14 14 14 12 11 10 9 8 8 7 6 5 5 4 4 4 4 5 7 8 8 8 8 8 8 10 13 14 14 13 12 11 11 10 10 9 8 7 7 8 10 10 10 10 9 9 10
9 10 10 10 10 10 10 11 11 12 10 9 9 6 7 10 11 9 8 6 5 7 6 2 9 12 8 8 8 9 8 8 9 7 8 6 6 9 7 9 11 12 14 14 15 16 16 16 15 14 14 15 13 12 11 10 9 8 7 7 6 5 5 4 4 4 5 6 8 9 9 9 9 9 9 11 14 15 14 14 14 13 12 11 10 9 8 8 7 8 9 10 9 9 9 8 8
9 10 10 10 11 10 10 11 11 11 9 6 6 6 7 10 11 10 9 6 6 7 6 4 9 13 9 7 9 10 9 8 8 7 8 6 7 10 8 10 13 14 16 16 17 17 17 16 15 14 15 15 13 11 10 9 8 7 7 6 6 5 5 5 4 5 6 7 9 10 11 11 11 10 10 11 14 15 15 14 14 14 12 11 10 10 9 9 8 8 9 9 9 9 8 7 7
10 10 11 11 11 10 10 10 10 9 5 2 2 7 9 12 14 11 9 8 8 7 6 6 9 13 11 8 9 9 8 8 7 6 7 6 6 9 9 11 14 15 17 17 18 17 17 16 15 15 14 13 12 10 9 9 8 7 7 6 6 6 6 5 5 6 7 8 9 11 12 12 12 12 11 12 14 15 15 14 14 14 13 12 11 10 10 9 9 9 9 9 9 8 8 6 6
11 11 11 11 10 10 9 9 9 5 1 1 3 7 10 13 13 9 10 9 8 8 8 8 10 13 11 10 9 7 7 6 5 4 5 5 5 8 10 11 14 16 18 18 17 17 17 16 16 15 13 12 11 10 9 9 8 7 7 6 6 6 6 6 7 7 7 9 10 11 12 12 12 12 12 12 13 15 15 14 14 13 13 12 11 11 10 10 9 8 8 9 9 8 8 7 5
11 12 12 11 10 9 9 9 8 5 3 1 4 7 10 13 10 8 9 10 7 7 10 10 12 13 12 11 9 7 7 5 3 2 2 3 4 7 9 11 14 17 18 16 16 16 16 16 16 15 13 11 11 10 10 9 9 8 7 7 6 6 7 7 7 8 9 10 11 11 11 11 12 12 12 12 13 14 15 15 15 14 14 13 12 12 11 10 9 8 8 8 8 8 7 7 5
12 12 12 11 11 9 9 9 7 5 3 1 3 7 12 12 8 5 7 9 7 9 12 12 13 13 13 11 8 7 7 6 3 1 2 3 4 6 8 11 14 18 17 15 14 15 16 16 15 14 13 12 11 11 11 10 10 9 8 7 7 7 7 8 9 9 10 10 10 10 10 11 11 12 12 12 12 13 13 14 15 15 15 14 14 13 13 12 11 9 8 7 7 7 6 6 6
11 11 11 11 10 8 9 10 7 4 2 4 4 8 12 11 7 1 5 6 8 11 13 15 15 13 12 11 8 7 7 6 5 3 3 4 4 5 7 10 12 16 17 15 15 16 16 16 15 15 14 14 13 12 12 11 10 8 8 8 8 8 8 9 9 10 10 9 9 9 9 10 11 11 11 11 11 11 11 12 13 15 15 15 15 14 14 13 12 10 9 8 7 6 6 6 6
11 11 11 11 10 9 10 11 7 2 4 6 5 9 13 12 8 3 5 7 10 12 11 15 16 12 11 10 8 6 7 8 6 5 4 4 5 5 6 8 10 14 16 16 16 17 17 17 16 16 15 14 14 13 12 11 10 9 8 8 9 9 9 9 10 10 10 9 8 8 9 9 10 10 10 9 9 9 9 10 11 13 15 16 16 15 14 13 12 11 10 9 8 7 7 7 7
11 11 11 12 11 11 12 11 8 2 5 5 4 8 12 11 8 5 6 7 9 9 9 13 15 13 11 9 7 6 7 7 6 5 4 4 5 5 7 7 10 14 15 17 18 17 17 17 16 16 15 14 13 12 11 11 10 10 9 10 10 10 9 10 10 10 9 8 8 8 9 9 9 8 7 7 6 7 8 8 9 10 12 14 15 15 15 14 13 11 10 10 9 7 7 8 8
12 12 12 13 12 13 13 11 8 4 6 5 1 6 10 10 8 7 7 8 7 8 8 11 13 12 11 9 7 7 7 7 6 6 5 5 6 6 7 8 10 13 16 17 18 18 17 16 15 15 14 14 13 12 11 11 11 10 10 10 10 10 9 10 10 10 9 9 9 9 9 9 8 7 7 6 5 5 6 6 7 8 9 11 12 13 13 13 12 11 11 10 8 6 7 9 10
12 12 13 14 13 14 13 10 8 6 7 6 3 4 8 8 8 7 8 9 7 6 5 7 10 10 10 9 8 8 7 6 7 6 6 7 7 7 8 9 11 13 16 17 18 18 17 16 15 14 14 14 13 12 12 11 10 10 10 11 10 10 10 10 10 10 9 9 9 9 9 9 8 8 7 7 6 6 6 6 7 7 8 9 10 11 12 12 12 12 11 9 7 6 7 10 12
13 14 14 14 14 14 12 9 9 8 9 8 7 7 7 7 8 7 7 9 9 6 4 5 8 8 8 9 8 7 5 5 7 6 6 7 8 8 8 9 11 13 15 17 18 18 17 16 16 15 14 13 13 12 12 11 10 10 10 10 10 10 11 11 10 10 10 10 10 10 10 9 9 8 8 8 8 8 8 7 7 7 8 9 9 10 10 10 10 10 8 8 8 6 7 10 12
14 14 14 14 14 13 11 10 10 10 10 9 8 8 6 6 7 7 5 7 9 9 7 5 5 7 8 8 6 5 4 4 5 6 5 6 7 8 8 9 10 13 14 16 17 17 17 17 16 15 14 13 12 11 11 10 10 10 10 10 10 10 11 10 10 10 10 11 11 11 11 10 8 8 9 9 9 9 9 9 8 8 8 8 8 8 8 8 8 7 7 8 7 6 6 8 10
15 14 15 16 15 13 12 12 12 12 11 10 9 7 4 5 6 5 3 4 7 9 8 4 2 4 7 7 5 4 4 4 6 6 5 6 7 8 8 9 11 13 15 16 16 17 18 17 16 15 13 12 11 10 10 10 10 10 10 10 10 10 11 11 11 11 11 12 12 12 11 9 8 8 9 9 10 10 10 10 9 8 7 6 6 7 8 8 8 6 7 8 7 6 6 7 8
15 15 16 16 15 14 14 13 13 13 12 11 10 7 5 3 3 3 3 4 5 7 6 4 2 2 5 5 4 3 3 4 5 6 7 7 8 9 10 12 13 15 17 18 18 17 17 17 15 13 12 12 11 10 10 9 10 11 10 10 11 11 12 11 11 11 11 12 12 12 9 8 8 8 9 10 10 10 10 10 9 8 7 6 6 6 7 6 5 5 6 7 6 6 6 6 7
15 15 17 17 15 15 14 13 13 13 13 12 10 8 7 4 1 2 2 3 2 4 6 6 4 1 3 5 3 3 3 4 6 7 9 9 9 11 13 14 16 17 19 19 18 17 15 15 14 13 12 12 11 10 10 10 11 11 11 12 12 12 12 12 11 12 12 11 11 10 8 8 8 9 10 10 10 10 9 8 7 7 6 5 4 4 4 5 5 5 5 5 5 5 5 6 7
15 15 16 18 17 17 15 14 14 14 12 11 10 8 8 6 3 1 1 1 1 4 5 6 6 5 6 7 5 4 5 5 7 8 8 8 9 12 14 16 18 19 20 19 18 17 14 14 14 14 13 12 11 11 11 12 12 13 13 13 13 13 12 12 13 12 12 10 9 9 9 9 9 10 10 10 10 9 8 7 6 5 5 4 4 4 4 5 5 5 4 4 4 4 5 6 7
14 15 17 18 17 17 17 16 15 14 13 12 11 9 8 7 6 4 1 2 2 3 3 5 7 8 9 9 8 7 6 6 8 8 8 9 11 13 15 18 20 20 19 18 17 16 15 15 14 14 14 13 12 11 12 13 13 14 14 13 13 13 13 13 14 13 11 10 10 10 10 10 10 11 10 10 10 9 9 8 7 7 7 6 6 6 6 5 5 4 4 4 4 4 5 7 7
13 15 16 16 17 17 17 17 15 14 13 12 11 10 9 7 9 7 2 2 4 4 4 5 6 9 9 8 8 6 6 7 7 7 9 11 12 14 17 20 22 22 20 17 16 15 16 15 14 14 14 14 13 12 13 13 14 13 13 13 13 13 13 14 14 13 11 11 11 11 11 11 12 12 11 10 10 10 10 9 9 9 9 8 8 8 8 8 6 5 4 4 4 5 6 7 8
12 14 15 15 17 18 17 16 15 14 13 13 12 11 10 8 9 8 3 3 4 4 4 5 5 7 9 8 6 4 6 8 8 8 10 13 14 16 19 21 22 22 20 17 16 16 16 15 14 15 15 15 14 13 13 12 12 12 12 12 12 13 14 15 14 13 12 12 12 13 13 12 12 12 11 10 10 10 10 10 10 10 10 10 9 10 10 9 7 6 5 5 6 7 7 8 9
12 13 15 16 18 19 18 17 16 15 14 12 12 13 12 9 9 8 6 5 4 3 3 4 5 5 6 6 5 7 8 9 9 10 12 15 16 18 21 22 22 23 22 18 17 17 16 15 15 16 16 16 14 13 13 11 11 12 12 11 12 13 14 15 14 14 14 14 14 14 14 13 12 11 10 10 10 10 11 10 10 9 9 9 9 9 9 9 7 6 6 6 6 6 7 8 9
13 15 17 18 18 19 18 18 17 17 15 13 13 16 15 12 10 10 9 9 7 5 4 3 4 5 6 6 7 9 10 10 11 12 14 19 21 23 24 24 24 25 25 21 18 18 18 17 18 19 18 16 14 12 11 11 11 12 11 11 12 13 14 15 15 15 15 15 15 14 14 13 12 11 10 10 10 10 10 9 9 8 8 8 8 8 8 8 7 6 7 6 6 6 6 6 7
13 16 18 19 19 19 19 18 18 17 16 13 14 16 16 13 12 12 12 11 10 9 7 5 4 3 5 6 8 10 10 11 11 13 18 24 24 22 23 24 25 25 24 24 21 20 22 21 20 19 16 13 12 11 11 12 12 12 12 12 12 13 14 15 16 16 16 15 15 15 14 13 12 10 9 9 9 9 9 8 8 8 8 8 8 8 8 8 7 7 7 6 6 5 5 6 6
14 15 17 19 18 18 18 16 16 16 15 14 14 15 15 12 10 12 13 13 12 11 10 8 6 4 5 6 8 10 11 12 13 17 22 26 23 20 23 25 25 25 25 26 25 24 24 22 19 15 12 13 12 11 12 13 13 12 12 12 12 13 15 16 17 17 17 17 16 15 15 13 11 10 9 9 9 8 7 7 7 7 8 8 8 8 8 8 7 7 6 6 6 6 6 6 6
14 14 16 18 16 13 11 7 7 9 9 12 13 14 16 14 10 11 12 13 14 13 12 11 8 7 7 7 9 10 12 14 16 18 18 18 18 17 22 25 25 25 24 25 25 25 21 17 15 14 13 15 14 12 13 13 12 12 11 12 12 13 14 16 18 18 17 17 16 15 14 12 10 10 9 9 8 7 6 6 7 8 8 8 8 8 7 7 6 6 5 6 6 6 6 7 7
14 12 12 15 14 12 9 6 6 6 7 9 9 10 15 16 12 11 11 12 15 15 14 12 10 9 9 8 9 10 14 16 15 14 12 9 12 12 12 16 18 21 22 24 24 21 17 14 14 14 15 16 14 12 13 13 12 12 12 12 13 13 15 17 18 18 17 16 16 15 13 12 11 10 9 9 9 8 7 6 7 8 9 9 8 7 6 6 5 5 5 5 6 7 7 7 7
14 13 12 13 13 11 9 8 8 9 9 9 7 7 12 15 12 11 11 11 14 16 16 14 13 12 11 10 10 13 16 15 11 10 9 6 7 8 13 19 16 17 20 20 18 16 14 14 15 15 15 14 13 12 13 13 13 13 14 13 13 14 16 17 18 17 16 15 14 13 12 11 10 10 9 9 9 9 8 7 7 8 8 8 7 6 6 5 5 5 5 5 5 7 7 7 7
15 15 15 15 15 14 12 9 8 9 9 9 8 7 12 16 14 12 13 13 13 14 15 16 16 15 13 12 12 16 16 13 10 8 7 3 2 4 6 19 24 12 17 15 9 12 12 12 12 13 13 12 12 12 13 13 14 14 14 14 14 15 16 16 16 16 14 13 12 11 11 10 10 9 9 10 10 10 8 7 7 7 6 6 5 5 5 5 5 4 4 5 5 7 7 7 7
13 14 15 15 16 17 15 12 11 12 13 13 12 10 11 16 16 13 14 16 15 14 13 15 17 17 16 14 14 18 16 13 11 6 5 1 3 3 4 12 22 15 6 12 9 9 10 13 12 11 11 11 11 12 13 14 15 14 14 15 15 15 15 15 14 14 12 11 10 9 9 9 9 9 10 10 10 10 9 8 8 7 6 5 3 4 4 4 4 4 4 4 5 6 7 7 7
9 11 13 14 16 17 16 14 12 13 16 17 17 15 13 15 17 15 15 18 19 18 16 17 20 21 20 18 17 19 17 14 11 6 5 3 4 5 7 8 12 18 9 5 8 6 8 13 16 13 11 12 13 13 14 15 15 14 14 14 14 14 14 13 12 12 10 9 8 8 8 7 7 7 8 9 10 10 8 8 9 8 6 4 3 3 3 3 4 3 3 4 5 6 6 6 7
13 13 14 16 18 20 19 17 15 15 18 19 18 18 18 18 19 18 17 19 21 22 21 22 23 22 21 21 20 20 18 14 11 8 7 6 5 6 10 8 6 10 12 8 6 7 9 13 15 15 13 12 13 13 13 14 13 13 13 13 13 12 12 11 11 10 9 8 6 5 4 3 3 3 4 5 7 8 7 7 7 6 5 4 3 2 2 3 3 3 3 4 5 6 6 6 6
15 16 17 20 22 23 23 21 17 13 16 18 17 18 20 21 21 21 20 20 22 24 26 26 25 23 22 21 21 21 19 16 13 10 8 9 7 8 11 10 9 6 4 4 4 7 11 15 16 15 14 14 14 13 13 13 13 13 12 12 12 11 11 11 10 9 8 7 6 5 4 4 3 3 3 3 4 4 4 4 4 4 4 4 4 2 2 3 3 3 3 5 6 6 6 6 7
15 16 18 21 24 22 19 13 8 6 11 15 16 17 19 21 23 22 21 20 20 22 27 29 28 26 24 23 23 22 20 16 13 12 10 10 10 11 11 11 12 11 9 8 9 10 12 17 19 16 14 15 14 14 15 13 14 14 14 13 13 12 12 11 11 10 9 7 7 6 5 5 5 5 5 5 5 5 5 5 4 4 4 4 4 4 3 3 3 3 3 5 6 6 6 7 7
17 18 19 23 24 20 15 11 9 10 13 16 16 16 18 21 23 22 20 20 20 21 25 29 29 29 28 27 26 24 21 16 13 13 11 11 12 13 12 10 11 13 13 11 10 11 13 17 20 18 16 15 14 15 16 16 16 16 17 16 15 14 13 12 12 11 10 8 7 6 6 6 6 5 5 5 5 6 6 6 5 4 4 5 5 5 5 4 5 5 5 5 6 6 7 7 7
20 21 22 25 25 22 20 19 17 15 14 15 13 13 17 19 17 16 15 18 21 22 25 28 29 30 31 30 29 27 24 19 17 15 11 11 12 13 13 10 10 12 13 13 11 12 14 16 19 20 18 16 16 17 17 17 18 18 17 16 15 15 14 14 13 11 10 9 7 6 6 5 5 4 4 4 4 5 5 6 5 4 4 4 5 6 6 6 6 6 6 6 7 7 8 8 7
20 22 22 21 21 20 19 18 15 12 9 6 4 5 9 11 10 10 11 15 19 22 25 27 28 29 31 32 32 31 27 22 20 17 12 11 12 14 15 12 11 12 14 14 14 13 14 17 19 21 19 17 17 18 18 18 19 18 16 14 13 13 14 15 13 12 11 9 8 7 6 5 4 3 2 2 3 4 4 5 4 4 3 3 4 5 6 7 7 7 7 7 7 8 8 8 7
16 16 12 10 11 12 13 12 10 8 6 3 4 5 7 11 11 10 9 11 15 19 23 26 27 29 30 31 31 30 27 23 21 19 15 14 15 16 17 15 12 13 15 16 16 15 16 17 20 21 20 18 18 19 19 19 19 18 16 14 14 15 16 15 14 12 11 9 9 7 6 5 4 3 2 2 2 3 3 3 3 2 2 2 3 3 4 5 7 8 8 8 8 8 9 9 8
12 9 4 5 7 6 7 7 7 8 8 9 10 8 9 14 13 9 9 11 13 16 20 23 27 29 31 30 29 28 26 23 21 19 15 15 17 17 17 18 15 13 15 18 17 17 17 18 20 22 20 19 19 19 19 20 20 19 18 17 18 18 17 15 13 11 10 10 9 7 6 4 3 2 1 1 1 1 2 1 1 0 1 2 3 4 4 5 6 8 8 9 9 9 10 10 9
11 6 5 8 9 6 6 6 7 8 7 9 11 8 7 10 11 8 9 11 12 14 17 21 24 25 28 28 26 26 24 21 21 19 16 15 17 18 19 20 17 14 15 16 17 18 18 19 20 22 22 20 20 20 20 21 21 20 19 19 20 21 18 16 13 11 10 9 8 7 5 4 3 2 1 0 1 1 1 2 2 3 3 3 4 5 5 5 6 7 8 9 10 10 10 10 10
9 7 8 10 9 6 5 5 7 5 3 9 13 8 5 9 12 10 8 9 10 12 15 19 24 25 26 26 25 24 23 21 21 19 17 17 18 20 21 22 20 17 14 14 17 19 19 20 21 23 23 21 21 20 21 22 22 21 20 20 21 20 18 16 14 12 11 9 8 6 5 3 3 3 3 3 4 4 4 4 5 6 5 5 5 6 6 6 6 6 8 9 9 9 9 10 10
8 8 9 9 7 5 4 4 3 2 4 11 13 10 6 6 9 9 10 10 10 12 13 16 23 27 26 26 26 25 23 22 22 19 18 18 20 23 24 25 24 20 16 16 18 19 19 21 22 24 24 22 21 21 22 23 23 22 22 21 21 20 17 15 13 12 11 9 7 6 4 3 2 3 4 5 6 7 7 7 8 8 7 6 5 5 6 6 6 6 7 8 9 8 8 9 10
9 9 9 6 3 2 1 2 4 3 5 5 6 7 7 8 8 9 10 11 11 11 10 11 16 21 24 26 26 25 23 22 20 19 18 19 22 26 27 27 25 21 19 19 20 19 19 21 24 25 25 23 22 22 23 24 24 24 24 23 22 20 17 14 13 12 11 9 7 5 3 1 1 3 5 6 7 8 8 8 8 8 7 6 5 5 6 6 6 6 7 8 10 10 10 10 11
10 11 10 5 2 2 3 3 3 5 6 4 4 3 6 13 16 13 12 13 13 11 8 8 10 14 17 21 23 22 22 21 20 19 18 19 22 27 29 28 25 21 21 21 20 20 20 22 25 26 26 25 24 24 24 24 24 25 24 24 23 21 18 15 14 12 10 8 6 4 3 1 2 4 6 8 9 8 7 6 6 5 5 4 4 5 6 6 6 6 7 8 10 11 11 11 11
11 13 12 8 4 2 2 2 1 4 6 6 9 6 5 13 15 13 15 16 14 11 9 9 9 11 13 16 19 19 19 20 19 17 19 22 28 31 31 28 23 21 22 21 21 21 21 22 24 27 28 27 26 25 25 25 25 25 25 25 24 22 18 16 15 12 10 8 6 5 4 2 2 4 6 8 9 8 7 5 3 3 3 3 4 5 6 6 6 6 7 8 9 10 10 10 10
10 10 11 11 9 4 2 3 3 4 2 1 5 4 5 9 10 10 12 16 17 13 10 10 9 10 13 14 16 16 16 17 18 18 22 28 31 33 33 29 25 23 22 21 22 22 22 22 24 28 29 28 27 27 27 27 27 26 26 25 24 22 19 17 14 12 11 9 7 5 4 2 2 3 5 7 7 6 5 4 3 2 3 3 4 5 6 7 7 6 7 8 9 9 10 10 10
11 9 10 13 13 8 4 3 5 3 0 2 4 5 8 10 11 11 10 13 18 17 14 13 12 12 13 14 14 13 13 15 19 20 22 25 26 28 32 28 24 23 21 21 22 23 23 23 25 27 29 31 31 30 30 30 28 27 26 25 23 21 18 16 14 12 11 9 7 5 3 2 2 3 5 7 6 5 5 4 3 4 4 4 4 5 7 7 7 6 7 8 9 10 11 11 11
9 11 13 13 12 11 7 3 3 3 2 4 4 5 10 11 10 13 12 11 14 17 18 17 16 15 15 15 14 13 13 15 17 15 17 21 22 25 26 22 21 23 22 21 23 24 24 24 25 28 32 35 34 33 31 29 27 25 25 24 22 19 18 17 15 12 10 8 7 6 4 3 3 4 6 7 7 7 6 5 4 5 6 6 6 6 7 7 7 7 7 9 10 10 10 11 10
10 10 11 11 9 10 10 3 0 2 3 3 3 5 9 8 6 10 13 12 11 13 15 17 17 17 17 16 16 15 14 14 13 12 17 20 20 23 24 21 22 24 22 22 24 25 24 25 27 29 32 33 31 29 28 28 26 24 24 24 22 21 19 18 16 12 9 8 8 8 6 5 5 5 7 8 8 8 8 6 5 5 7 8 8 8 8 7 6 7 8 9 9 9 9 8 8
14 12 10 8 6 8 10 6 1 2 3 1 2 5 8 8 8 10 11 12 12 13 13 14 15 15 16 17 16 15 14 14 15 17 22 22 21 24 26 25 26 25 23 24 25 25 25 26 26 27 27 27 24 22 23 27 27 25 24 24 24 23 20 18 15 13 11 10 10 9 8 7 8 7 8 9 9 9 9 8 7 6 7 8 8 9 9 8 6 7 7 8 8 8 8 7 6
14 15 13 11 8 6 9 9 5 3 2 1 1 2 5 8 10 11 11 10 11 13 12 12 12 13 14 14 14 14 14 14 14 16 20 24 26 30 30 28 27 25 24 24 25 25 25 25 24 22 21 21 20 20 21 25 26 25 25 25 24 23 20 18 16 14 13 13 11 9 8 9 9 9 9 9 10 9 9 8 8 7 7 8 8 8 8 8 7 7 7 8 8 8 8 6 6
14 17 17 15 13 9 6 8 9 5 1 1 2 2 4 7 9 10 11 10 10 11 11 10 10 9 9 10 11 13 14 15 16 16 19 23 26 33 33 28 26 25 23 24 24 23 22 23 21 17 17 18 20 23 23 25 26 25 25 26 25 23 21 19 18 15 15 14 12 10 10 10 10 11 11 11 10 10 9 8 8 8 8 8 7 7 7 7 7 8 8 9 9 9 8 7 8
12 15 18 18 17 13 7 6 9 8 4 3 2 2 3 6 7 9 12 11 10 11 10 8 8 7 7 8 8 11 15 17 18 17 19 23 28 36 33 27 25 23 22 22 22 21 20 21 18 13 14 16 18 20 21 23 26 25 25 26 25 23 22 20 19 17 16 15 13 12 11 10 11 11 12 12 11 11 10 9 8 8 9 8 8 7 7 8 8 9 9 9 9 9 8 8 10
Wind_Direction
270 269 271 272 272 273 271 269 251 244 243 248 262 267 273 282 277 66 38 4 329 310 324 314 293 316 310 229 253 255 247 242 241 248 261 286 273 231 199 187 191 206 202 199 207 213 217 218 214 210 206 200 193 185 181 180 181 180 182 186 189 187 180 174 162 157 152 144 134 92 213 209 224 217 203 195 191 186 179 175 169 159 146 136 134 131 121 111 106 102 100 96 92 91 89 87 82
267 267 270 270 271 270 266 263 243 245 247 255 274 278 279 284 273 274 327 302 327 311 329 324 283 61 88 124 105 134 183 178 180 207 227 271 260 198 180 170 180 202 202 196 200 210 218 217 215 213 208 200 194 188 183 182 183 183 186 190 193 191 187 183 175 176 172 175 205 211 220 218 222 219 207 199 197 191 183 178 171 163 154 144 143 138 127 119 113 108 106 101 97 94 91 88 85
262 261 264 265 269 266 262 256 242 244 244 264 287 300 282 268 281 297 266 247 262 289 313 315 267 150 128 125 109 111 122 139 143 148 154 207 207 175 171 165 177 192 197 201 204 209 214 216 217 215 209 201 196 188 183 184 185 187 189 194 199 196 191 187 184 187 188 200 216 218 221 222 220 213 205 202 200 194 187 182 176 169 162 152 151 146 135 129 121 117 113 107 102 96 92 89 87
252 251 255 258 264 261 256 250 246 249 256 270 290 13 18 97 31 359 308 262 263 284 298 299 244 163 145 140 126 132 131 139 135 129 126 138 152 165 183 183 185 192 198 204 207 209 213 216 218 215 208 201 196 188 183 185 187 189 192 200 203 200 194 190 191 196 202 213 220 223 224 221 220 213 207 201 199 197 189 185 182 177 169 159 157 154 146 139 131 126 120 114 108 102 97 92 89
243 241 245 250 256 255 248 245 247 250 261 274 247 289 10 24 341 323 296 282 284 284 290 293 221 171 155 156 171 216 168 148 145 136 125 120 137 156 187 200 197 200 203 209 211 213 215 217 216 213 205 200 196 187 183 183 185 190 195 203 206 202 195 192 196 204 215 222 224 226 224 219 217 214 208 196 193 197 190 185 186 183 175 165 161 160 155 149 141 134 127 122 116 110 105 95 91
236 234 238 242 247 247 241 241 252 260 269 275 259 275 318 326 321 301 276 280 285 263 255 270 194 181 179 185 215 222 189 160 156 155 147 134 150 165 180 200 206 211 213 218 219 218 217 216 213 208 203 200 195 187 183 182 183 187 194 200 202 198 194 194 199 211 224 229 229 226 224 222 217 209 204 192 191 196 191 186 188 189 182 173 167 166 164 160 152 142 134 129 123 118 113 102 95
232 233 237 238 243 243 242 250 263 272 273 272 274 297 323 327 324 297 277 266 248 234 228 184 177 185 197 202 209 203 188 175 167 163 161 154 167 178 191 204 211 220 221 223 224 221 216 214 209 204 202 201 194 185 180 179 180 183 191 190 188 186 184 189 199 212 226 232 231 226 222 222 218 208 202 193 193 197 195 191 192 194 190 182 176 173 172 171 165 154 144 140 135 128 124 113 101
231 236 239 238 243 244 248 263 271 273 280 279 288 327 345 341 331 300 272 250 226 231 235 199 176 184 191 195 196 192 185 180 174 159 157 158 167 183 205 214 215 223 225 225 225 222 215 210 203 199 201 200 191 181 176 174 175 178 181 176 173 173 175 184 196 211 225 233 232 228 223 220 219 214 209 200 198 201 200 198 197 199 197 191 184 181 181 181 177 167 156 151 149 140 134 125 111
230 234 237 238 242 248 257 271 273 278 294 288 343 0 356 344 333 304 261 246 232 233 231 209 187 185 187 180 182 190 185 177 172 149 151 161 167 188 210 220 221 226 228 227 224 218 211 204 197 195 198 196 184 174 169 167 167 169 171 168 169 170 177 187 199 213 224 232 232 229 226 222 220 219 215 208 205 205 204 203 202 204 203 199 193 192 193 191 188 180 168 161 160 153 144 140 126
226 229 234 236 238 250 263 271 276 284 282 171 37 13 355 347 337 303 252 239 238 233 223 212 195 189 190 184 191 205 193 181 170 145 149 166 172 189 207 219 223 226 230 229 221 212 205 198 191 190 191 185 175 167 160 158 162 167 171 173 175 178 184 193 203 215 223 229 231 230 229 226 224 223 221 216 211 209 208 206 205 208 208 206 202 201 203 203 200 191 181 172 170 166 157 153 147
226 227 228 233 236 247 263 271 274 265 256 267 42 19 359 357 344 298 252 237 237 224 217 212 200 194 194 194 205 216 205 209 192 154 161 173 176 189 205 216 221 225 227 224 216 209 201 193 186 183 180 174 167 161 158 161 169 175 178 180 184 188 192 200 207 215 222 227 230 230 232 230 228 226 225 223 218 214 212 209 207 210 212 212 209 207 209 210 208 201 195 187 180 176 169 164 162
228 229 227 232 238 247 261 267 265 252 258 151 80 19 4 6 354 297 245 237 227 211 211 209 205 201 202 202 209 219 221 237 249 230 199 176 183 195 206 213 220 223 217 209 207 203 194 187 180 174 169 167 165 164 166 173 179 181 183 185 191 196 200 206 212 219 225 227 228 229 231 231 230 229 229 229 227 223 218 213 211 212 214 215 214 213 213 213 211 207 204 202 196 188 183 176 176
230 232 231 235 242 248 256 263 268 254 160 127 96 27 11 10 11 312 204 211 201 201 207 207 206 204 208 208 206 223 239 252 261 253 219 184 196 209 213 214 213 210 200 192 194 192 185 179 173 169 167 168 170 171 174 180 182 184 185 190 196 200 205 212 218 224 228 228 226 225 228 229 230 232 232 232 233 232 228 222 217 216 216 217 218 217 218 217 215 211 206 206 209 209 205 197 194
230 232 233 236 241 242 250 259 267 255 144 130 83 41 20 10 22 80 162 166 181 193 201 205 203 203 211 211 211 238 256 258 255 240 225 206 212 222 228 222 200 192 186 180 181 182 177 171 169 169 170 172 174 176 178 180 182 186 189 193 199 202 206 214 222 228 230 231 229 226 225 224 227 229 229 231 233 236 234 229 224 221 218 218 219 219 221 222 221 217 213 209 206 217 227 221 214
231 231 230 233 238 239 247 255 257 237 154 145 76 45 27 12 27 71 127 138 164 181 188 192 191 197 204 207 218 236 243 246 244 233 230 225 223 231 236 223 193 186 183 175 174 175 172 168 168 170 173 175 176 176 177 179 183 187 190 194 197 201 205 213 221 229 233 233 230 226 221 217 218 219 221 222 223 227 228 226 224 220 218 218 220 220 221 223 225 224 223 220 210 211 232 240 234
231 230 229 232 236 239 243 250 252 218 175 178 43 26 26 19 35 73 115 124 141 165 180 183 183 192 196 201 218 218 221 228 229 225 223 228 229 233 235 220 198 188 183 175 170 169 168 167 169 172 174 177 176 175 176 179 184 184 188 192 194 198 203 212 220 225 229 228 225 222 218 213 212 210 207 205 204 207 210 213 210 206 209 215 219 221 222 223 227 228 230 233 227 213 227 248 247
230 229 230 233 235 239 241 247 254 226 205 215 251 327 8 21 36 66 109 118 125 147 172 185 188 194 194 204 218 215 213 212 217 221 220 231 234 235 237 227 209 193 184 174 167 166 165 166 172 176 175 176 175 175 177 179 182 185 188 189 190 196 201 208 215 219 221 220 219 217 215 212 208 206 202 194 192 188 183 191 191 186 192 202 211 217 220 222 224 229 232 236 238 217 219 248 254
230 229 230 235 237 240 243 248 256 246 237 238 251 289 334 7 30 49 85 107 114 122 138 175 187 192 199 209 215 212 206 201 207 210 218 231 237 242 244 237 218 199 186 173 167 166 167 169 173 177 177 176 176 175 177 178 181 186 188 186 189 196 201 206 210 214 216 214 214 215 213 210 208 207 202 193 187 180 174 179 183 179 183 190 199 207 212 217 218 222 228 229 234 231 235 255 256
229 230 233 238 240 241 244 247 253 256 253 252 264 282 309 344 16 34 59 107 117 118 122 141 172 186 197 203 205 201 187 183 188 193 218 239 249 256 252 244 224 202 187 177 172 170 173 173 173 177 178 176 176 175 176 179 182 185 187 186 191 199 205 209 209 211 211 209 210 213 213 210 209 206 200 194 186 180 176 177 179 180 181 181 184 186 191 197 195 198 216 230 241 253 265 268 259
229 231 236 238 241 243 243 245 251 260 264 262 272 274 275 322 2 24 48 112 124 124 128 140 145 177 193 189 183 173 151 159 175 189 213 237 251 253 245 240 224 200 185 181 180 178 176 172 172 176 175 174 176 175 177 181 183 184 187 188 192 200 207 211 209 209 208 207 208 213 213 209 213 211 201 195 190 186 182 177 175 176 175 171 169 168 172 177 175 185 221 241 254 260 265 269 263
229 231 239 240 241 244 244 246 250 259 266 269 278 269 249 287 353 19 66 104 121 126 134 168 163 170 201 187 175 165 150 169 187 206 219 231 246 242 228 221 212 196 186 183 184 184 176 167 171 175 171 173 176 177 180 183 184 186 187 188 194 202 207 208 208 209 209 209 209 210 208 209 216 211 200 197 196 192 183 173 172 175 176 174 170 172 177 186 197 223 244 253 258 257 257 260 261
232 235 242 245 244 245 246 248 251 259 262 269 281 266 245 249 289 354 59 85 115 130 137 163 171 185 206 196 206 203 187 199 205 218 226 229 242 239 227 218 210 201 192 186 184 181 171 166 171 173 174 175 177 181 182 184 185 187 187 190 197 203 206 206 207 209 210 210 208 203 200 207 210 202 197 196 193 187 178 171 172 179 185 186 187 195 202 217 232 243 246 250 252 253 254 255 258
238 241 244 247 248 247 249 249 253 261 259 263 275 261 247 242 237 257 5 13 146 138 136 155 168 173 183 183 182 172 166 190 206 214 222 226 239 241 235 229 221 209 198 189 183 175 169 172 173 173 178 179 181 185 185 186 187 187 188 192 198 203 206 206 206 207 207 205 201 195 193 198 201 199 198 194 189 186 185 186 188 196 204 209 219 232 236 237 234 231 228 233 243 249 254 256 257
243 245 246 250 253 254 257 255 254 258 256 261 266 254 248 251 254 249 273 284 218 166 155 157 168 174 179 173 162 163 169 191 210 215 220 225 234 238 238 231 218 205 199 191 181 173 173 176 174 175 179 182 187 189 188 187 188 190 191 194 199 203 205 205 205 204 201 198 195 192 191 194 196 197 198 196 197 199 202 206 211 217 222 226 235 241 243 241 235 230 227 232 244 250 253 256 257
247 250 251 254 257 259 261 258 254 254 252 257 256 247 247 255 259 251 247 258 231 208 184 159 162 168 168 164 163 175 195 217 232 238 236 236 236 237 236 228 212 200 196 192 182 177 176 174 175 179 182 186 190 190 189 189 189 192 194 196 201 202 203 205 203 198 194 193 193 192 192 194 197 200 203 207 214 218 222 229 233 238 242 243 243 246 245 242 238 237 239 243 249 252 252 254 256
246 254 255 253 254 255 258 257 254 252 248 248 246 241 243 248 249 245 229 203 199 203 195 166 157 160 157 160 172 204 230 243 252 251 243 237 232 233 232 223 212 201 193 190 184 180 176 171 178 186 189 192 190 189 189 190 189 192 198 199 200 198 201 206 200 192 189 191 194 194 194 198 201 207 215 223 231 239 246 251 253 254 253 250 247 245 243 240 239 243 251 255 254 254 252 251 251
243 251 253 251 252 253 254 253 253 253 248 242 239 236 238 237 232 227 213 200 183 166 180 174 177 181 171 174 203 231 241 244 243 242 242 240 235 234 228 217 210 200 189 185 183 180 176 174 184 191 195 193 187 187 188 189 190 195 201 199 198 196 200 206 199 190 189 192 196 196 199 202 206 215 226 239 249 257 262 263 262 257 249 245 242 240 238 237 240 249 259 262 260 257 252 248 247
237 244 249 252 256 259 257 253 253 254 249 241 241 241 240 231 218 212 208 207 201 187 184 184 193 199 196 204 219 230 244 244 240 245 248 245 238 231 217 205 207 203 187 182 182 178 179 182 190 195 196 193 184 184 186 188 194 198 200 199 198 197 201 205 197 189 190 194 197 198 202 206 211 224 239 251 260 263 264 263 257 248 240 238 237 238 240 244 249 257 263 264 263 257 248 245 244
233 241 249 253 256 261 262 261 263 259 248 244 248 254 251 234 215 212 212 209 208 208 210 206 207 212 216 223 228 237 246 248 253 256 250 246 241 236 225 209 209 207 191 188 188 184 187 188 193 196 192 189 184 185 190 191 195 197 198 200 200 200 203 202 195 190 191 193 196 199 203 209 218 236 249 257 263 263 260 255 248 243 243 242 243 246 251 256 259 261 262 261 257 249 244 243 241
233 239 248 255 258 264 270 274 277 270 257 251 253 261 259 238 222 225 220 214 214 218 224 226 231 252 260 255 251 247 245 255 258 246 245 249 246 239 232 219 210 208 197 192 193 192 192 188 191 196 183 188 193 189 193 194 195 197 200 201 200 202 202 199 195 192 192 192 194 199 205 212 228 246 254 258 262 260 254 246 243 245 248 249 251 256 260 262 260 259 260 255 247 239 236 233 232
231 238 249 257 261 268 273 274 279 277 267 257 252 259 259 247 241 241 229 222 221 222 230 238 242 257 273 274 271 255 246 255 255 249 254 264 264 246 232 224 214 210 200 194 198 198 194 184 186 193 182 191 203 195 193 194 195 199 202 203 203 204 200 196 196 193 193 193 195 201 208 220 238 249 251 253 254 253 250 243 242 245 249 252 256 262 266 266 261 258 255 248 239 233 230 228 227
230 235 247 256 260 263 257 242 250 258 266 261 248 252 257 253 253 249 239 233 226 224 229 235 240 250 262 270 272 252 243 249 256 274 299 321 310 300 288 268 241 223 210 202 203 195 189 185 183 195 192 195 203 199 194 193 196 201 200 201 202 201 196 195 195 194 195 196 199 205 214 228 239 244 246 247 248 249 249 247 249 251 253 254 255 262 265 262 258 254 250 241 233 228 227 230 230
231 234 242 251 258 263 261 254 253 247 249 253 238 232 244 247 249 246 241 235 226 224 225 226 230 235 246 256 259 245 243 250 254 282 313 338 314 313 339 339 314 258 224 210 203 182 179 191 190 199 202 201 203 200 197 193 197 202 200 198 197 196 193 193 194 194 197 200 204 210 218 228 234 240 244 245 248 250 252 255 259 261 261 257 254 260 261 257 255 251 248 242 233 229 228 231 232
231 238 245 250 258 265 266 256 244 239 238 239 232 225 233 239 243 244 242 238 232 229 226 225 225 225 232 239 244 243 246 253 254 277 307 324 268 259 8 16 2 311 221 197 179 170 177 192 200 209 212 209 204 202 202 196 197 202 198 194 193 193 191 191 192 194 198 202 206 211 218 227 235 241 244 245 247 246 248 252 255 258 259 257 259 268 268 263 260 253 249 244 236 230 226 225 228
231 240 248 255 259 262 265 262 253 250 247 244 244 240 233 237 242 246 247 247 244 240 235 228 223 221 222 225 235 243 246 249 250 269 295 256 183 194 99 49 26 17 199 185 164 173 189 191 195 211 222 221 212 208 204 197 201 203 196 194 192 189 188 188 189 191 196 201 206 216 225 236 243 247 245 243 242 239 239 242 249 254 251 252 267 280 281 273 263 253 247 245 234 224 220 218 222
228 236 245 253 259 261 265 266 259 257 257 252 249 247 240 236 238 240 244 248 246 245 239 229 226 222 216 216 228 239 241 245 246 250 258 242 217 182 129 93 50 45 53 166 173 188 207 198 195 204 220 229 224 216 206 200 204 202 195 195 192 186 184 183 185 190 198 205 213 224 232 242 249 249 243 236 234 237 238 239 247 255 256 259 269 276 275 262 255 246 236 234 224 216 216 218 218
240 244 248 253 262 269 272 276 275 273 272 265 255 252 247 238 235 234 238 243 243 243 238 232 231 226 219 218 226 234 235 237 237 234 232 226 225 190 154 131 102 67 56 70 115 155 186 197 202 204 209 224 230 222 212 207 205 200 195 191 187 185 182 182 187 194 202 206 208 210 210 213 218 219 218 219 224 230 233 234 241 247 253 259 261 266 253 234 242 242 225 214 211 212 213 217 217
249 254 258 260 265 272 281 290 291 283 276 272 265 260 253 243 239 236 237 241 241 241 238 237 238 236 232 229 230 234 232 231 229 225 222 220 219 202 174 151 146 139 103 99 134 168 189 197 199 200 201 214 226 219 212 210 203 199 194 187 186 186 185 187 192 195 194 186 177 167 156 149 138 129 134 153 173 188 196 199 208 219 230 242 247 254 236 220 235 245 230 206 202 208 209 210 215
251 255 260 264 266 275 288 299 304 288 279 276 270 268 260 250 247 245 245 246 245 244 242 241 244 244 243 239 237 238 234 232 230 223 216 216 218 210 191 168 161 163 166 185 197 202 208 201 197 199 202 211 218 211 207 204 198 194 190 189 191 192 192 190 183 178 172 162 156 151 144 133 121 116 112 112 115 122 134 146 166 191 207 222 231 235 226 213 219 228 227 212 204 208 210 211 215
251 255 260 263 267 277 286 287 294 292 282 276 273 276 270 258 256 256 254 250 248 248 245 243 244 245 245 243 242 243 241 236 227 222 216 214 220 218 205 185 172 169 169 182 196 208 213 204 200 202 202 209 211 205 204 199 193 192 192 193 193 195 193 180 170 165 159 154 152 147 138 128 120 115 107 101 104 110 117 125 141 168 192 208 215 217 214 208 210 214 214 210 206 208 212 216 219
255 258 260 265 274 282 284 284 291 289 273 269 273 279 276 269 263 256 247 244 246 245 244 243 243 243 244 244 241 237 237 234 224 222 218 213 222 222 211 198 188 180 177 188 197 206 213 210 208 206 203 205 203 201 203 199 193 193 197 197 195 194 183 169 163 160 158 155 152 146 140 134 128 118 109 112 117 120 122 124 131 146 172 196 206 205 203 201 204 209 211 209 208 212 216 219 222
258 262 266 274 283 284 283 281 283 282 268 261 280 285 275 263 244 233 230 236 244 246 245 245 245 244 243 243 240 234 231 229 224 222 214 207 216 219 213 205 200 192 187 195 199 202 211 214 214 209 202 200 198 199 203 201 196 196 200 201 196 185 170 165 164 163 161 158 154 151 147 142 134 127 128 134 132 127 124 123 129 141 160 185 202 202 201 204 207 210 215 216 218 219 220 222 223
259 265 274 294 294 279 274 269 263 266 258 254 293 291 278 269 255 242 237 238 245 249 249 247 245 241 237 237 236 231 229 227 222 218 207 200 208 214 213 208 204 198 193 197 201 203 206 211 214 210 202 200 199 199 202 201 198 196 197 194 186 175 169 170 172 168 163 157 154 150 144 139 129 129 139 142 135 124 116 112 118 132 165 194 209 206 203 208 214 218 220 222 223 224 223 223 223
246 255 279 326 317 284 264 258 248 256 268 278 280 273 272 279 276 261 251 252 250 250 251 247 242 234 228 227 225 223 225 225 221 218 207 200 207 212 214 211 206 199 196 198 203 207 206 207 211 209 205 202 200 199 201 201 198 196 194 186 177 174 173 175 173 166 158 154 150 142 136 128 114 109 121 150 160 142 125 112 98 69 258 247 242 232 218 211 216 221 221 221 220 219 220 222 222
230 239 284 310 317 298 264 251 251 265 283 281 271 259 256 272 284 279 263 264 257 254 255 243 232 225 220 218 216 216 220 219 220 222 211 205 211 212 209 210 208 199 198 203 206 210 210 209 209 210 208 206 202 199 199 199 196 193 190 183 179 179 177 173 169 160 153 149 143 137 132 117 94 70 53 323 273 264 265 274 281 288 294 286 266 251 237 223 218 219 220 220 218 215 214 217 218
233 256 290 304 310 296 274 263 262 264 263 261 263 258 248 272 285 277 261 268 266 264 262 236 216 211 209 209 209 211 214 214 219 221 211 207 214 212 205 206 210 207 207 215 214 211 213 212 210 210 210 209 205 199 197 197 195 191 187 184 184 183 178 172 166 156 148 145 142 139 129 102 66 30 3 335 318 304 294 287 282 284 290 291 281 263 251 238 227 222 222 221 218 216 214 215 217
251 270 288 304 306 289 273 264 253 222 241 259 267 261 244 273 287 270 259 271 276 273 266 235 213 208 206 206 208 209 212 215 218 217 210 208 213 209 202 205 212 216 220 222 217 212 213 215 213 211 210 210 205 198 195 196 194 190 185 185 187 183 177 172 161 151 148 147 144 140 126 98 47 359 338 328 319 309 300 291 284 283 284 286 281 267 258 250 237 230 227 217 208 211 216 218 223
259 270 276 288 290 241 203 202 184 206 248 264 284 268 234 238 266 274 272 276 276 272 262 237 219 212 208 208 210 210 211 213 216 216 211 212 214 206 200 206 214 221 225 223 218 211 209 214 215 212 210 209 204 198 195 194 193 190 185 185 185 180 176 170 156 151 153 149 146 146 143 123 6 341 333 330 323 315 307 295 285 280 279 278 269 259 258 257 247 239 234 217 204 208 214 216 221
250 254 249 233 207 171 180 180 181 239 260 264 274 265 224 246 264 270 265 266 266 257 240 224 212 207 206 208 209 208 208 211 218 223 220 219 215 203 199 205 211 218 222 222 220 211 205 212 215 211 209 208 204 198 194 193 191 189 187 185 182 179 175 167 158 158 159 155 157 168 182 213 319 341 343 340 334 330 327 312 294 282 276 269 262 262 263 263 257 248 241 227 213 212 213 214 220
236 237 223 198 174 150 195 197 218 260 261 259 255 247 239 256 266 262 248 248 249 241 230 219 203 199 206 210 210 210 215 221 226 229 227 220 208 198 197 202 205 212 219 222 222 212 205 210 214 211 207 204 202 198 193 191 189 186 187 186 181 179 174 165 163 165 165 168 176 192 210 232 314 347 352 350 343 339 340 333 309 289 278 267 265 270 269 269 265 254 241 229 219 213 212 216 220
248 246 230 211 203 199 203 202 222 254 254 198 218 211 223 237 244 252 246 237 233 233 232 226 215 210 215 216 210 210 222 229 228 226 223 222 213 199 195 197 199 208 219 224 220 212 206 209 214 214 208 203 200 196 192 188 184 183 186 185 181 178 173 167 170 173 176 183 190 204 220 239 324 349 351 356 351 339 336 334 310 282 272 267 267 273 274 272 267 255 238 226 218 212 213 217 218
256 242 224 222 222 225 231 210 219 246 148 159 192 216 244 247 245 249 247 233 229 232 237 236 233 227 225 224 219 219 226 226 227 227 225 231 230 212 200 196 196 207 221 226 218 211 209 210 215 217 211 206 200 196 192 184 178 180 183 183 181 179 175 175 179 183 187 192 201 217 230 252 320 345 346 355 1 344 323 307 290 274 269 271 270 271 270 269 267 255 239 226 219 216 219 222 221
234 214 215 230 235 232 234 221 221 246 255 233 218 239 263 268 264 251 241 233 230 233 239 241 240 240 238 235 233 233 232 229 232 234 234 244 247 228 208 197 199 210 225 229 217 211 212 213 219 220 215 208 200 195 188 175 171 178 179 180 184 183 183 185 188 191 195 202 217 233 249 272 303 334 340 350 2 354 329 300 285 278 277 280 277 273 269 266 265 255 240 228 223 224 227 228 222
223 218 226 240 238 228 228 224 82 227 244 251 228 248 267 268 270 261 243 232 229 229 233 238 242 245 245 245 245 244 243 244 243 236 232 239 243 227 208 199 207 215 225 229 218 212 214 217 222 224 219 212 201 191 178 166 171 180 179 180 187 191 192 192 193 196 205 221 236 244 255 273 295 318 332 340 351 354 340 317 298 288 284 283 282 281 276 269 263 251 240 231 227 227 228 229 221
232 236 235 232 226 218 213 206 210 227 232 262 222 248 269 259 256 269 255 234 227 225 227 234 241 245 246 250 252 253 256 253 245 237 232 230 225 213 203 203 211 216 223 225 216 213 215 219 223 227 226 218 204 188 173 170 177 181 180 182 189 196 197 196 201 207 218 233 242 248 258 272 289 303 316 326 336 346 342 326 309 294 283 281 281 280 277 271 260 246 237 230 226 224 225 229 218
231 232 229 226 229 218 202 204 221 237 231 236 222 238 266 264 257 260 259 246 232 230 231 236 246 251 250 254 259 264 270 266 258 251 241 234 222 207 201 206 213 218 224 224 216 213 216 221 224 225 227 223 207 192 183 181 182 180 181 185 191 198 201 202 208 215 224 234 241 248 260 271 281 292 303 310 320 331 334 323 309 295 283 278 275 272 270 264 253 241 232 224 218 217 224 226 206
223 222 221 221 219 209 198 210 219 226 222 194 230 247 248 264 265 250 248 254 248 245 244 247 259 266 263 265 270 277 283 281 277 264 253 250 228 202 197 206 215 221 225 223 219 214 215 222 223 216 217 216 202 192 188 186 183 181 184 188 193 199 203 208 213 219 227 235 240 246 257 266 274 285 294 298 305 315 320 314 303 293 283 275 268 260 255 249 242 234 225 216 211 212 216 209 196
220 222 224 224 219 208 201 215 213 214 219 193 209 262 254 264 271 250 244 254 263 264 264 269 277 278 278 282 283 287 287 285 280 265 259 258 225 197 193 205 216 224 224 222 223 218 217 224 222 214 213 208 193 185 186 187 183 183 187 191 195 201 206 212 216 221 227 232 239 246 255 262 271 282 288 290 294 303 310 304 294 285 277 271 263 250 239 234 231 228 220 213 209 208 207 202 197